TimeEDT,TemperatureF,Dew PointF,Humidity,Sea Level PressureIn,VisibilityMPH,Wind Direction,Wind SpeedMPH,Gust SpeedMPH,PrecipitationIn,Events,Conditions,WindDirDegrees,DateUTC
12:54 AM,64.9,59.0,81,30.30,-9999.0,SSW,9.2,-,N/A,,Unknown,210,2013-08-18 04:54:00
1:54 AM,66.0,55.0,68,30.29,-9999.0,SW,9.2,-,N/A,,Unknown,230,2013-08-18 05:54:00
2:54 AM,64.9,55.0,70,30.29,-9999.0,WSW,8.1,-,N/A,,Unknown,240,2013-08-18 06:54:00
3:54 AM,64.0,55.9,75,30.30,-9999.0,WSW,5.8,-,N/A,,Unknown,240,2013-08-18 07:54:00
4:54 AM,64.9,55.0,70,30.29,-9999.0,West,9.2,-,N/A,,Unknown,270,2013-08-18 08:54:00
5:54 AM,66.0,54.0,65,30.29,-9999.0,West,6.9,-,N/A,,Unknown,260,2013-08-18 09:54:00
6:54 AM,66.0,54.0,65,30.30,-9999.0,West,4.6,-,N/A,,Unknown,280,2013-08-18 10:54:00
7:54 AM,66.9,57.0,70,30.30,-9999.0,WNW,4.6,-,N/A,,Unknown,300,2013-08-18 11:54:00
8:54 AM,68.0,55.9,65,30.30,-9999.0,West,4.6,-,N/A,,Unknown,260,2013-08-18 12:54:00
9:54 AM,72.0,55.9,57,30.30,-9999.0,Calm,Calm,-,N/A,,Unknown,0,2013-08-18 13:54:00
10:54 AM,72.0,59.0,64,30.30,-9999.0,Calm,Calm,-,N/A,,Unknown,0,2013-08-18 14:54:00
11:54 AM,73.0,59.0,61,30.29,-9999.0,Variable,3.5,-,N/A,,Unknown,0,2013-08-18 15:54:00
12:54 PM,75.0,55.9,51,30.27,-9999.0,South,4.6,-,N/A,,Unknown,180,2013-08-18 16:54:00
1:54 PM,78.1,54.0,43,30.25,-9999.0,South,4.6,-,N/A,,Unknown,190,2013-08-18 17:54:00
2:54 PM,75.9,55.9,50,30.23,-9999.0,SSW,4.6,-,N/A,,Unknown,200,2013-08-18 18:54:00
3:54 PM,75.0,57.0,53,30.21,-9999.0,SSW,8.1,-,N/A,,Unknown,200,2013-08-18 19:54:00
4:54 PM,73.9,55.9,53,30.18,-9999.0,South,6.9,-,N/A,,Unknown,190,2013-08-18 20:54:00
5:54 PM,72.0,57.9,61,30.17,-9999.0,South,6.9,-,N/A,,Unknown,190,2013-08-18 21:54:00
6:54 PM,70.0,57.9,65,30.17,-9999.0,South,9.2,-,N/A,,Unknown,180,2013-08-18 22:54:00
7:54 PM,66.9,59.0,76,30.17,-9999.0,SSW,8.1,-,N/A,,Unknown,210,2013-08-18 23:54:00
8:54 PM,66.0,57.0,73,30.17,-9999.0,SW,9.2,-,N/A,,Unknown,220,2013-08-19 00:54:00
9:54 PM,64.9,57.9,78,30.15,-9999.0,SW,8.1,-,N/A,,Unknown,230,2013-08-19 01:54:00
10:54 PM,63.0,55.9,78,30.13,-9999.0,SW,9.2,-,N/A,,Unknown,220,2013-08-19 02:54:00
11:54 PM,63.0,55.0,75,30.12,-9999.0,SW,11.5,-,N/A,,Unknown,220,2013-08-19 03:54:00